PROFILE

 METAR AND TAF INFORMATION
ADDS - METARS form results

(2347 UTC 26 May 2019)
http://aviationweather.gov/metar/data/
 
LFRD 262330Z AUTO 31012KT 5000 BR OVC003 13/13 Q1016 TEMPO BKN008
LFRD 262300Z AUTO 26004KT 6000 BKN006 OVC011 14/14 Q1016 BECMG 32010KT
TAF LFRD 262300Z 2700/2724 29010KT 9999 BKN020 TEMPO 2700/2708 BKN008 BECMG 2712/2714 31015G25KT BECMG 2719/2721 28010KT 

 AIRPORT MAP

 RUNWAY INFORMATION
Runway 12 Runway length 4708 ft Runway width 148 ft
Runway elevation 209 ft Runway displaced threshold 0 ft Runway heading 115
Runway 30 Runway length 4708 ft Runway width 148 ft
Runway elevation 213 ft Runway displaced threshold 476 ft Runway heading 295
Runway 17 Runway length 7218 ft Runway width 148 ft
Runway elevation 193 ft Runway displaced threshold 0 ft Runway heading 170
Runway 35 Runway length 7218 ft Runway width 148 ft
Runway elevation 198 ft Runway displaced threshold 0 ft Runway heading 350

 AIRPORT FREQUENCIES
Type ATIS Name DINARD ATI Frequency 124.575 MHZ
Type TWR Name DINARD TWR Frequency 120.15 MHZ

 AIRPORT NEAR NAVIGATION AIDS
Type VOR-DME Name Dinard Frequency 114300 KHZ